Time,TemperatureF,DewpointF,PressureIn,WindDirection,WindDirectionDegrees,WindSpeedMPH,WindSpeedGustMPH,Humidity,HourlyPrecipIn,Conditions,Clouds,dailyrainin,SoftwareType,DateUTC
2013-10-13 00:04:00,57.7,51.0,30.21,ENE,76,0.0,-999.0,77,-99.99,,,0.00,weatherlink.com 1.10,2013-10-13 04:04:00,
2013-10-13 00:19:00,58.2,51.0,30.21,NNW,333,0.0,-999.0,77,-99.99,,,0.00,weatherlink.com 1.10,2013-10-13 04:19:00,
2013-10-13 00:34:00,58.6,51.0,30.21,ENE,57,0.0,-999.0,77,-99.99,,,0.00,weatherlink.com 1.10,2013-10-13 04:34:00,
2013-10-13 00:49:00,58.6,52.0,30.22,ENE,65,0.0,-999.0,78,-99.99,,,0.00,weatherlink.com 1.10,2013-10-13 04:49:00,
2013-10-13 01:04:00,58.6,52.0,30.22,ENE,65,0.0,-999.0,78,-99.99,,,0.00,weatherlink.com 1.10,2013-10-13 05:04:00,
2013-10-13 01:20:00,58.6,52.0,30.22,ENE,65,0.0,-999.0,79,-99.99,,,0.00,weatherlink.com 1.10,2013-10-13 05:20:00,
2013-10-13 01:35:00,58.6,52.0,30.23,ENE,70,0.0,-999.0,80,-99.99,,,0.00,weatherlink.com 1.10,2013-10-13 05:35:00,
2013-10-13 01:50:00,58.7,53.0,30.23,ENE,70,0.0,-999.0,81,-99.99,,,0.00,weatherlink.com 1.10,2013-10-13 05:50:00,
2013-10-13 02:05:00,58.8,53.0,30.24,ENE,70,0.0,-999.0,82,-99.99,,,0.00,weatherlink.com 1.10,2013-10-13 06:05:00,
2013-10-13 02:20:00,58.7,53.0,30.24,ENE,70,0.0,-999.0,82,-99.99,,,0.00,weatherlink.com 1.10,2013-10-13 06:20:00,
2013-10-13 02:35:00,58.7,54.0,30.23,ENE,70,0.0,-999.0,83,-99.99,,,0.00,weatherlink.com 1.10,2013-10-13 06:35:00,
2013-10-13 02:50:00,58.8,54.0,30.24,ENE,70,0.0,-999.0,83,-99.99,,,0.00,weatherlink.com 1.10,2013-10-13 06:50:00,
2013-10-13 03:05:00,58.9,54.0,30.23,ENE,70,0.0,-999.0,84,-99.99,,,0.00,weatherlink.com 1.10,2013-10-13 07:05:00,
2013-10-13 03:20:00,59.1,54.0,30.23,ENE,70,0.0,-999.0,84,-99.99,,,0.00,weatherlink.com 1.10,2013-10-13 07:20:00,
2013-10-13 03:35:00,59.1,54.0,30.23,ENE,70,0.0,-999.0,83,-99.99,,,0.00,weatherlink.com 1.10,2013-10-13 07:35:00,
2013-10-13 03:50:00,59.4,54.0,30.24,ENE,70,0.0,-999.0,82,-99.99,,,0.00,weatherlink.com 1.10,2013-10-13 07:50:00,
2013-10-13 04:05:00,59.7,54.0,30.24,ENE,74,0.0,-999.0,81,-99.99,,,0.00,weatherlink.com 1.10,2013-10-13 08:05:00,
2013-10-13 04:20:00,59.8,54.0,30.24,ENE,77,0.0,-999.0,80,-99.99,,,0.00,weatherlink.com 1.10,2013-10-13 08:20:00,
2013-10-13 04:35:00,59.9,53.0,30.24,ENE,59,0.0,-999.0,79,-99.99,,,0.00,weatherlink.com 1.10,2013-10-13 08:35:00,
2013-10-13 04:50:00,59.9,53.0,30.24,NE,50,0.0,-999.0,78,-99.99,,,0.00,weatherlink.com 1.10,2013-10-13 08:50:00,
2013-10-13 05:05:00,59.7,53.0,30.24,East,81,0.0,-999.0,78,-99.99,,,0.00,weatherlink.com 1.10,2013-10-13 09:05:00,
2013-10-13 05:20:00,59.6,53.0,30.24,East,79,0.0,-999.0,78,-99.99,,,0.00,weatherlink.com 1.10,2013-10-13 09:20:00,
2013-10-13 05:35:00,59.4,53.0,30.24,ENE,63,0.0,-999.0,78,-99.99,,,0.00,weatherlink.com 1.10,2013-10-13 09:35:00,
2013-10-13 05:50:00,59.2,52.0,30.25,East,92,0.0,-999.0,78,-99.99,,,0.00,weatherlink.com 1.10,2013-10-13 09:50:00,
2013-10-13 06:05:00,59.2,52.0,30.25,ENE,72,1.0,-999.0,78,-99.99,,,0.00,weatherlink.com 1.10,2013-10-13 10:05:00,
2013-10-13 06:20:00,59.1,52.0,30.26,NE,51,0.0,-999.0,77,-99.99,,,0.00,weatherlink.com 1.10,2013-10-13 10:20:00,
2013-10-13 06:35:00,59.1,52.0,30.26,ENE,58,0.0,-999.0,77,-99.99,,,0.00,weatherlink.com 1.10,2013-10-13 10:35:00,
2013-10-13 06:50:00,59.0,52.0,30.27,ENE,69,0.0,-999.0,77,-99.99,,,0.00,weatherlink.com 1.10,2013-10-13 10:50:00,
2013-10-13 07:05:00,58.9,52.0,30.27,ENE,62,0.0,-999.0,77,-99.99,,,0.00,weatherlink.com 1.10,2013-10-13 11:05:00,
2013-10-13 07:20:00,58.9,52.0,30.28,ENE,58,0.0,-999.0,77,-99.99,,,0.00,weatherlink.com 1.10,2013-10-13 11:20:00,
2013-10-13 07:35:00,58.9,52.0,30.28,ENE,58,0.0,-999.0,77,-99.99,,,0.00,weatherlink.com 1.10,2013-10-13 11:35:00,
2013-10-13 07:50:00,58.9,52.0,30.29,NE,55,0.0,-999.0,77,-99.99,,,0.00,weatherlink.com 1.10,2013-10-13 11:50:00,
2013-10-13 08:05:00,59.1,52.0,30.30,ENE,65,0.0,-999.0,76,-99.99,,,0.00,weatherlink.com 1.10,2013-10-13 12:05:00,
2013-10-13 08:21:00,59.3,51.0,30.30,ENE,63,0.0,-999.0,75,-99.99,,,0.00,weatherlink.com 1.10,2013-10-13 12:21:00,
2013-10-13 08:35:00,59.5,51.0,30.30,NE,48,0.0,-999.0,73,-99.99,,,0.00,weatherlink.com 1.10,2013-10-13 12:35:00,
2013-10-13 08:50:00,59.7,51.0,30.31,ENE,69,0.0,-999.0,72,-99.99,,,0.00,weatherlink.com 1.10,2013-10-13 12:50:00,
2013-10-13 09:05:00,59.9,50.0,30.31,ENE,59,0.0,-999.0,69,-99.99,,,0.00,weatherlink.com 1.10,2013-10-13 13:05:00,
2013-10-13 09:20:00,60.1,49.0,30.31,ENE,60,0.0,-999.0,68,-99.99,,,0.00,weatherlink.com 1.10,2013-10-13 13:20:00,
2013-10-13 09:35:00,60.4,49.0,30.32,ENE,78,0.0,-999.0,66,-99.99,,,0.00,weatherlink.com 1.10,2013-10-13 13:35:00,
2013-10-13 09:50:00,60.8,50.0,30.32,East,81,0.0,-999.0,67,-99.99,,,0.00,weatherlink.com 1.10,2013-10-13 13:50:00,
2013-10-13 10:05:00,61.1,50.0,30.32,ENE,61,2.0,-999.0,66,-99.99,,,0.00,weatherlink.com 1.10,2013-10-13 14:05:00,
2013-10-13 10:20:00,61.3,49.0,30.32,East,90,0.0,-999.0,64,-99.99,,,0.00,weatherlink.com 1.10,2013-10-13 14:20:00,
2013-10-13 10:35:00,61.4,49.0,30.32,ENE,76,0.0,-999.0,65,-99.99,,,0.00,weatherlink.com 1.10,2013-10-13 14:35:00,
2013-10-13 10:50:00,61.3,49.0,30.32,SE,138,1.0,-999.0,65,-99.99,,,0.00,weatherlink.com 1.10,2013-10-13 14:50:00,
2013-10-13 11:05:00,61.6,50.0,30.32,SE,126,0.0,-999.0,66,-99.99,,,0.00,weatherlink.com 1.10,2013-10-13 15:05:00,
2013-10-13 11:20:00,61.9,49.0,30.32,ENE,61,0.0,-999.0,64,-99.99,,,0.00,weatherlink.com 1.10,2013-10-13 15:20:00,
2013-10-13 11:35:00,62.1,50.0,30.32,ENE,67,1.0,-999.0,65,-99.99,,,0.00,weatherlink.com 1.10,2013-10-13 15:35:00,
2013-10-13 11:50:00,62.4,49.0,30.32,NE,48,0.0,-999.0,63,-99.99,,,0.00,weatherlink.com 1.10,2013-10-13 15:50:00,
2013-10-13 12:05:00,63.3,51.0,30.31,NE,43,0.0,-999.0,64,-99.99,,,0.00,weatherlink.com 1.10,2013-10-13 16:05:00,
2013-10-13 12:21:00,64.2,51.0,30.31,East,90,0.0,-999.0,63,-99.99,,,0.00,weatherlink.com 1.10,2013-10-13 16:21:00,
2013-10-13 12:36:00,65.4,51.0,30.30,East,82,0.0,-999.0,60,-99.99,,,0.00,weatherlink.com 1.10,2013-10-13 16:36:00,
2013-10-13 12:51:00,66.4,51.0,30.30,ENE,63,1.0,-999.0,58,-99.99,,,0.00,weatherlink.com 1.10,2013-10-13 16:51:00,
2013-10-13 13:06:00,67.2,52.0,30.29,ENE,71,0.0,-999.0,58,-99.99,,,0.00,weatherlink.com 1.10,2013-10-13 17:06:00,
2013-10-13 13:21:00,69.1,54.0,30.29,NE,55,2.0,-999.0,58,-99.99,,,0.00,weatherlink.com 1.10,2013-10-13 17:21:00,
2013-10-13 13:36:00,70.7,54.0,30.28,South,189,0.0,-999.0,55,-99.99,,,0.00,weatherlink.com 1.10,2013-10-13 17:36:00,
2013-10-13 13:51:00,70.8,53.0,30.28,NE,40,0.0,-999.0,53,-99.99,,,0.00,weatherlink.com 1.10,2013-10-13 17:51:00,
2013-10-13 14:06:00,71.0,52.0,30.27,WNW,298,0.0,-999.0,51,-99.99,,,0.00,weatherlink.com 1.10,2013-10-13 18:06:00,
2013-10-13 14:21:00,71.9,52.0,30.27,ESE,107,0.0,-999.0,50,-99.99,,,0.00,weatherlink.com 1.10,2013-10-13 18:21:00,
2013-10-13 14:36:00,72.8,54.0,30.26,ENE,69,1.0,-999.0,51,-99.99,,,0.00,weatherlink.com 1.10,2013-10-13 18:36:00,
2013-10-13 14:51:00,73.0,53.0,30.26,South,182,0.0,-999.0,49,-99.99,,,0.00,weatherlink.com 1.10,2013-10-13 18:51:00,
2013-10-13 15:06:00,72.2,52.0,30.26,WSW,238,1.0,-999.0,50,-99.99,,,0.00,weatherlink.com 1.10,2013-10-13 19:06:00,
2013-10-13 15:21:00,71.9,52.0,30.26,WSW,237,1.0,-999.0,50,-99.99,,,0.00,weatherlink.com 1.10,2013-10-13 19:21:00,
2013-10-13 15:36:00,71.9,53.0,30.26,WSW,242,0.0,-999.0,52,-99.99,,,0.00,weatherlink.com 1.10,2013-10-13 19:36:00,
2013-10-13 15:51:00,72.3,52.0,30.25,SSW,209,0.0,-999.0,49,-99.99,,,0.00,weatherlink.com 1.10,2013-10-13 19:51:00,
2013-10-13 16:06:00,72.5,52.0,30.26,WSW,250,0.0,-999.0,48,-99.99,,,0.00,weatherlink.com 1.10,2013-10-13 20:06:00,
2013-10-13 16:21:00,71.6,51.0,30.26,SW,225,0.0,-999.0,49,-99.99,,,0.00,weatherlink.com 1.10,2013-10-13 20:21:00,
2013-10-13 16:36:00,71.2,52.0,30.26,East,79,1.0,-999.0,50,-99.99,,,0.00,weatherlink.com 1.10,2013-10-13 20:36:00,
2013-10-13 16:51:00,70.3,51.0,30.26,NE,42,0.0,-999.0,51,-99.99,,,0.00,weatherlink.com 1.10,2013-10-13 20:51:00,
2013-10-13 17:06:00,70.1,52.0,30.26,WSW,237,0.0,-999.0,52,-99.99,,,0.00,weatherlink.com 1.10,2013-10-13 21:06:00,
2013-10-13 17:21:00,69.6,51.0,30.26,South,178,0.0,-999.0,52,-99.99,,,0.00,weatherlink.com 1.10,2013-10-13 21:21:00,
2013-10-13 17:36:00,69.2,52.0,30.27,ENE,63,0.0,-999.0,54,-99.99,,,0.00,weatherlink.com 1.10,2013-10-13 21:36:00,
2013-10-13 17:51:00,68.8,51.0,30.27,WSW,255,0.0,-999.0,54,-99.99,,,0.00,weatherlink.com 1.10,2013-10-13 21:51:00,
2013-10-13 18:06:00,68.1,51.0,30.27,ENE,69,0.0,-999.0,55,-99.99,,,0.00,weatherlink.com 1.10,2013-10-13 22:06:00,
2013-10-13 18:21:00,67.5,51.0,30.27,South,182,0.0,-999.0,56,-99.99,,,0.00,weatherlink.com 1.10,2013-10-13 22:21:00,
2013-10-13 18:36:00,67.0,52.0,30.28,ESE,113,0.0,-999.0,58,-99.99,,,0.00,weatherlink.com 1.10,2013-10-13 22:36:00,
2013-10-13 18:51:00,66.5,52.0,30.28,ENE,59,0.0,-999.0,59,-99.99,,,0.00,weatherlink.com 1.10,2013-10-13 22:51:00,
2013-10-13 19:06:00,65.9,51.0,30.29,ENE,67,0.0,-999.0,60,-99.99,,,0.00,weatherlink.com 1.10,2013-10-13 23:06:00,
2013-10-13 19:21:00,65.4,51.0,30.29,ENE,59,0.0,-999.0,61,-99.99,,,0.00,weatherlink.com 1.10,2013-10-13 23:21:00,
2013-10-13 19:36:00,64.9,51.0,30.29,ENE,67,0.0,-999.0,62,-99.99,,,0.00,weatherlink.com 1.10,2013-10-13 23:36:00,
2013-10-13 19:51:00,64.3,52.0,30.30,ENE,69,0.0,-999.0,64,-99.99,,,0.00,weatherlink.com 1.10,2013-10-13 23:51:00,
2013-10-13 20:06:00,63.4,51.0,30.30,ENE,65,0.0,-999.0,65,-99.99,,,0.00,weatherlink.com 1.10,2013-10-14 00:06:00,
2013-10-13 20:21:00,62.4,51.0,30.30,East,79,0.0,-999.0,67,-99.99,,,0.00,weatherlink.com 1.10,2013-10-14 00:21:00,
2013-10-13 20:36:00,61.5,51.0,30.30,East,79,0.0,-999.0,69,-99.99,,,0.00,weatherlink.com 1.10,2013-10-14 00:36:00,
2013-10-13 20:51:00,60.5,51.0,30.30,East,79,0.0,-999.0,71,-99.99,,,0.00,weatherlink.com 1.10,2013-10-14 00:51:00,
2013-10-13 21:06:00,59.1,50.0,30.31,East,79,0.0,-999.0,73,-99.99,,,0.00,weatherlink.com 1.10,2013-10-14 01:06:00,
2013-10-13 21:21:00,57.9,50.0,30.32,East,79,0.0,-999.0,75,-99.99,,,0.00,weatherlink.com 1.10,2013-10-14 01:21:00,
2013-10-13 21:36:00,56.6,50.0,30.32,East,79,0.0,-999.0,78,-99.99,,,0.00,weatherlink.com 1.10,2013-10-14 01:36:00,
2013-10-13 21:51:00,55.7,49.0,30.32,East,79,0.0,-999.0,79,-99.99,,,0.00,weatherlink.com 1.10,2013-10-14 01:51:00,
2013-10-13 22:06:00,54.7,49.0,30.32,East,79,0.0,-999.0,81,-99.99,,,0.00,weatherlink.com 1.10,2013-10-14 02:06:00,
2013-10-13 22:21:00,53.9,49.0,30.32,East,101,0.0,-999.0,82,-99.99,,,0.00,weatherlink.com 1.10,2013-10-14 02:21:00,
2013-10-13 22:36:00,53.2,49.0,30.32,East,101,0.0,-999.0,84,-99.99,,,0.00,weatherlink.com 1.10,2013-10-14 02:36:00,
2013-10-13 22:51:00,52.7,48.0,30.32,East,101,0.0,-999.0,85,-99.99,,,0.00,weatherlink.com 1.10,2013-10-14 02:51:00,
2013-10-13 23:06:00,52.1,48.0,30.32,East,101,0.0,-999.0,85,-99.99,,,0.00,weatherlink.com 1.10,2013-10-14 03:06:00,
2013-10-13 23:22:00,51.4,47.0,30.32,East,101,0.0,-999.0,86,-99.99,,,0.00,weatherlink.com 1.10,2013-10-14 03:22:00,
2013-10-13 23:37:00,51.0,47.0,30.33,East,101,0.0,-999.0,87,-99.99,,,0.00,weatherlink.com 1.10,2013-10-14 03:37:00,
2013-10-13 23:52:00,50.5,47.0,30.33,East,100,0.0,-999.0,87,-99.99,,,0.00,weatherlink.com 1.10,2013-10-14 03:52:00,